GFSWCAN_con_3kmhel_027.txt.gz
Helicity
130 133 136 118 104 93 81 80 82 87 93 103 115 128 153 160 166 96 93 102 75 85 132 173 229 223 164 189 135 94 181 156 164 147 115 95 103 103 142 139 119 136 155 139 175 153 101 94 207 237 222 257 272 251
129 124 132 121 114 100 97 90 91 91 97 100 118 140 167 175 179 111 108 115 107 84 66 111 159 205 209 184 128 105 86 87 111 133 120 112 131 133 147 147 146 190 140 139 177 126 94 167 230 319 294 282 239 195
112 115 128 127 117 108 101 93 94 96 102 107 118 140 174 199 222 128 104 134 102 91 120 122 139 156 196 247 192 142 136 85 143 114 114 114 116 126 141 135 183 180 192 217 247 132 234 356 422 402 335 229 159 154
96 104 114 118 116 116 113 104 102 106 110 115 126 142 180 210 236 138 100 142 96 93 100 99 92 118 144 191 183 151 121 194 204 172 144 131 131 114 148 143 204 145 205 204 222 177 296 298 330 355 248 174 131 126
216 118 122 116 121 114 123 126 120 120 119 131 140 153 180 198 200 121 108 133 124 88 57 82 108 96 120 156 147 159 164 171 184 201 181 137 146 176 218 244 220 181 189 205 176 124 193 248 301 272 207 135 202 255
380 312 221 147 130 125 136 134 134 126 122 130 146 167 189 204 179 116 113 138 169 117 97 102 84 102 132 142 136 165 173 170 169 165 143 151 179 197 201 240 177 136 129 150 206 293 313 285 227 164 167 245 280 233
298 338 297 250 190 142 131 134 135 142 144 142 147 170 200 223 155 153 108 114 193 142 117 112 88 137 137 186 215 205 189 182 188 167 182 169 171 241 258 256 204 162 161 255 337 404 317 209 177 190 223 270 284 266
196 247 306 251 258 203 150 126 116 120 135 139 147 163 192 168 150 166 160 147 155 141 150 142 117 137 154 191 196 198 195 180 212 214 238 183 204 271 264 217 151 132 164 283 259 294 221 175 206 186 251 281 260 221
41 80 118 171 247 235 187 152 119 101 109 111 119 153 151 172 162 145 183 159 133 143 147 181 179 129 178 207 198 182 194 165 179 229 243 225 234 256 202 159 177 156 254 309 289 240 217 213 263 303 290 268 208 172
64 50 47 63 113 182 216 147 111 104 97 100 160 149 145 132 153 163 138 148 169 184 229 194 222 225 204 187 183 182 183 168 181 164 188 210 256 232 156 199 270 265 301 278 271 370 375 339 304 262 224 174 156 142
69 67 73 82 49 46 41 68 113 141 225 181 168 169 134 156 164 166 162 161 155 181 183 242 276 286 263 254 237 189 185 185 155 136 210 225 225 136 169 240 314 381 472 521 434 396 306 266 225 178 157 133 125 116
98 94 82 73 86 80 45 66 80 111 150 195 179 231 248 215 174 173 193 218 188 176 259 239 277 312 327 298 246 214 263 211 183 243 282 263 190 295 348 321 357 386 310 298 287 260 227 190 161 148 121 99 98 95
93 98 88 61 72 96 114 102 86 80 128 154 154 153 171 190 216 210 237 321 272 277 220 217 248 209 212 221 240 254 243 292 305 290 316 297 264 283 283 357 342 318 318 239 191 154 140 132 126 100 74 75 89 94
59 64 70 64 59 68 92 108 96 49 71 128 139 160 154 135 187 248 237 234 235 209 187 197 223 147 188 175 194 250 309 357 371 368 305 314 314 225 162 182 186 156 149 129 119 105 121 101 78 62 69 81 91 97
38 29 31 65 38 54 68 83 96 71 103 121 119 155 155 149 164 137 127 150 182 165 159 184 206 207 247 241 259 291 306 360 349 393 390 199 119 147 175 160 143 138 110 109 102 103 79 55 64 69 73 76 90 113
26 15 31 27 41 47 46 42 47 48 95 125 141 135 81 109 113 107 103 92 92 115 145 171 209 229 290 344 347 402 436 505 436 257 47 7 50 82 88 110 117 116 116 103 79 64 64 71 71 69 74 85 102 130
33 18 5 15 34 56 61 36 56 70 63 90 112 109 83 93 69 78 71 81 77 127 185 160 196 223 214 277 333 296 348 232 52 -10 -14 11 44 71 87 124 143 117 74 57 68 70 71 72 75 84 89 112 118 120
43 17 20 30 41 48 46 59 62 76 89 61 68 66 80 85 66 74 75 82 98 108 122 145 123 187 195 201 176 144 62 37 49 32 34 62 98 117 122 107 79 59 67 62 61 68 77 89 101 128 132 131 135 124
69 40 32 71 80 60 73 77 74 100 91 72 73 87 72 62 62 50 42 49 53 56 85 110 129 120 116 92 90 49 54 48 44 55 76 77 76 64 55 63 57 53 52 62 74 86 103 112 136 147 142 137 142 142
90 112 81 87 88 88 103 97 83 102 95 68 69 87 80 71 60 60 63 62 56 61 75 74 68 65 59 61 65 66 59 77 94 97 81 79 80 75 53 54 62 64 68 68 88 97 119 135 135 118 107 111 118 123
83 56 83 44 83 112 102 110 109 96 94 100 82 86 95 82 81 72 70 66 62 52 56 40 54 52 76 78 89 94 102 99 88 83 68 81 79 81 78 78 72 77 92 104 114 132 136 154 127 132 114 117 110 153
64 65 50 56 19 70 122 98 87 105 110 74 97 91 98 101 91 66 75 63 50 52 60 75 79 93 84 72 69 77 95 120 112 105 104 106 98 94 87 77 84 89 109 126 130 132 144 163 156 145 126 103 121 148
73 65 65 39 29 47 84 144 124 91 96 75 110 99 86 80 72 75 62 56 58 78 103 124 113 95 110 105 111 201 220 176 189 194 168 131 113 105 97 103 126 127 115 107 118 133 129 132 145 170 158 136 126 109
58 66 51 26 59 69 131 133 126 159 162 124 102 93 87 88 80 90 83 80 155 169 179 203 161 129 130 247 291 291 251 177 153 135 113 81 68 80 80 86 95 110 162 148 131 118 113 108 126 184 131 95 103 115
49 42 44 61 54 66 89 133 172 148 115 96 117 112 79 80 79 74 85 140 145 162 168 213 289 277 323 290 211 156 132 107 95 86 86 97 100 107 102 96 132 163 126 119 113 105 95 90 99 77 66 60 96 91
11 32 39 57 82 97 95 106 90 117 126 126 127 116 97 100 102 98 154 132 137 133 129 168 205 191 188 174 150 134 111 99 96 89 105 156 160 143 126 125 109 106 114 113 105 98 92 87 95 103 126 123 100 103
15 11 42 61 76 95 109 127 175 157 144 139 130 122 142 115 84 123 123 143 129 119 96 114 148 172 163 147 134 139 121 119 138 122 116 157 192 155 129 123 124 113 111 109 107 108 105 105 103 100 97 91 104 121
43 36 42 71 78 80 71 101 102 106 112 95 107 87 72 100 115 110 113 112 134 141 140 152 160 167 161 134 131 130 142 160 164 178 203 259 149 134 150 146 136 152 133 128 131 128 126 125 134 106 98 98 99 158
60 92 73 75 78 71 67 67 59 74 80 76 82 110 113 122 118 116 129 141 156 185 193 175 188 179 196 205 193 143 137 125 143 164 162 136 131 135 98 88 91 90 91 96 104 118 126 135 118 100 116 140 176 181
21 20 28 24 25 29 41 59 59 72 106 105 98 113 123 121 147 181 170 179 194 195 182 178 169 185 191 192 174 168 103 75 67 82 82 83 83 73 62 52 54 55 58 67 83 108 127 153 110 159 144 127 132 116
26 31 43 53 56 59 60 65 73 87 110 119 139 154 142 134 153 167 183 177 157 197 211 205 177 162 171 171 143 125 101 93 110 94 75 66 67 62 55 64 72 76 79 86 103 131 156 142 117 102 118 112 104 80
46 59 57 65 70 70 73 81 85 86 90 97 126 125 109 125 162 149 152 182 149 156 150 144 153 138 111 82 87 93 132 88 60 69 66 62 63 60 58 75 83 93 92 105 149 166 159 95 83 83 80 90 92 90
54 60 66 71 71 78 91 89 78 94 107 127 172 173 156 163 159 119 92 103 103 110 120 110 89 75 72 91 98 101 70 62 76 74 74 84 75 58 68 83 84 91 87 108 120 108 81 65 57 55 64 71 70 67

GFSWCAN_con_3kmhel_030.txt.gz
Helicity
90 118 105 112 110 66 74 77 81 92 108 118 132 143 156 164 153 96 108 102 65 90 166 170 173 162 166 156 146 126 182 146 152 150 128 109 117 120 151 128 96 110 143 130 197 192 112 130 205 186 132 200 194 233
117 134 105 114 101 65 78 81 77 86 103 126 138 160 183 178 149 88 111 124 91 91 102 128 187 203 149 96 112 112 106 90 99 140 126 119 126 124 151 138 162 150 148 126 158 126 143 131 153 193 242 246 246 253
123 127 114 114 95 83 87 84 78 83 98 121 141 164 191 207 161 74 104 118 105 110 133 137 180 211 217 185 92 129 117 92 108 109 99 110 122 128 131 108 146 121 210 182 233 155 157 177 247 272 283 303 286 279
124 130 117 123 90 102 93 89 92 92 95 113 134 160 192 220 182 96 103 115 88 93 113 118 122 157 186 182 154 121 124 187 171 152 147 128 122 92 117 136 146 107 184 182 225 253 290 279 242 274 297 292 296 301
115 129 131 129 109 93 100 100 100 94 102 115 131 149 179 187 157 118 110 140 100 80 54 103 107 140 163 169 152 157 179 174 170 167 153 109 114 148 162 192 176 180 187 222 196 148 189 161 211 252 281 270 281 195
120 123 126 119 116 116 103 103 107 104 110 121 134 153 169 152 91 99 95 111 143 96 90 99 81 116 182 184 188 198 175 172 176 150 137 132 163 168 148 191 130 121 118 141 141 162 186 204 220 224 255 303 184 307
310 192 158 154 135 126 131 131 116 110 121 133 140 162 180 140 110 105 73 84 154 104 93 104 94 132 144 168 159 164 175 153 154 145 167 169 199 207 210 214 197 139 110 162 265 343 345 277 210 261 364 335 365 314
320 304 252 177 142 138 135 127 135 140 142 146 158 173 149 142 116 151 175 189 173 126 134 127 116 125 143 149 146 144 150 165 180 184 206 161 181 234 214 209 150 119 158 241 227 272 229 269 389 471 273 284 300 228
319 305 286 239 202 132 119 121 121 128 141 157 187 176 172 173 147 144 207 202 150 143 140 158 135 91 137 160 157 140 150 157 174 210 231 225 229 228 167 138 136 121 161 196 318 350 333 346 394 243 343 201 200 182
445 468 348 260 198 138 100 103 111 117 129 173 177 182 171 164 154 163 144 146 173 196 208 176 183 172 146 146 167 160 164 164 169 138 160 204 258 209 119 127 180 141 146 326 442 483 520 574 395 297 169 159 137 130
44 43 109 219 203 169 139 123 134 154 194 179 188 180 136 165 148 159 156 165 164 186 189 217 208 221 207 212 197 165 162 161 148 140 187 198 220 151 167 198 262 372 469 500 491 449 391 373 182 126 130 107 114 106
105 90 89 91 82 78 107 189 239 217 198 155 113 136 157 174 161 146 167 196 214 175 208 176 176 193 202 201 197 210 234 221 184 209 230 213 184 230 299 309 393 508 582 569 460 329 134 121 113 84 91 99 95 86
118 117 119 136 154 149 126 106 128 97 182 266 242 205 165 174 164 161 207 249 257 258 213 183 166 150 171 181 189 188 173 214 242 230 261 249 298 304 311 310 294 185 46 -32 -27 55 88 76 82 89 83 76 71 68
116 111 104 130 147 155 141 119 78 100 109 129 154 208 183 164 213 241 249 218 190 169 139 132 130 96 127 139 139 162 194 242 226 265 286 248 222 193 146 120 138 166 164 140 113 105 102 82 75 70 62 54 72 77
81 83 96 136 124 134 136 117 90 49 95 120 120 162 166 133 127 101 109 128 156 126 134 145 165 158 155 153 194 232 261 304 326 389 384 293 239 168 164 136 102 104 104 97 63 67 59 55 53 48 60 71 84 93
30 35 72 82 92 99 92 71 72 70 111 128 133 123 103 124 120 103 101 112 103 116 124 135 144 147 170 194 213 233 271 335 338 296 210 148 107 67 50 27 48 88 99 72 56 55 57 58 59 62 81 95 98 104
37 21 33 56 84 72 72 46 64 80 80 105 143 151 126 143 117 104 85 83 81 94 122 133 169 187 181 217 262 275 328 289 203 138 37 -13 -19 -2 37 63 75 67 67 60 50 51 54 61 80 92 91 98 115 125
25 25 41 73 61 46 49 52 50 59 76 67 77 86 103 111 112 123 108 92 96 99 109 127 111 180 191 194 175 140 60 39 9 -15 -39 -12 21 50 66 73 72 55 44 48 49 58 72 82 82 98 108 114 114 116
30 41 57 68 60 43 44 57 57 60 64 76 89 96 81 86 84 66 64 66 66 63 74 95 122 121 113 101 103 55 35 31 39 53 74 80 77 76 72 72 76 74 73 77 84 86 92 94 119 130 141 143 142 151
62 88 71 81 65 63 78 71 70 85 89 57 86 97 85 78 65 61 53 60 73 84 93 89 78 76 60 46 39 53 67 81 91 88 80 88 89 88 94 100 103 97 97 89 91 102 116 125 130 140 164 170 177 165
55 47 66 43 69 113 110 100 115 96 96 119 92 104 116 112 108 92 84 80 97 80 79 62 54 39 51 72 76 97 116 98 84 76 74 99 135 150 165 173 147 128 111 107 99 94 105 121 137 127 139 162 174 171
54 60 62 70 88 110 129 136 123 105 120 93 103 87 102 108 101 95 105 104 87 80 87 91 74 73 77 106 159 152 113 140 169 205 221 171 165 159 152 120 93 76 79 89 113 129 122 118 100 112 120 126 137 170
60 66 78 72 118 141 124 111 166 126 150 118 118 123 103 95 87 103 92 78 109 132 126 118 119 129 228 245 262 296 289 224 206 180 168 149 119 97 79 87 113 113 113 127 131 126 112 120 127 132 129 151 165 182
48 72 76 101 107 130 106 153 110 128 133 109 89 82 61 79 74 95 83 107 138 153 165 178 166 213 253 262 270 279 273 205 167 145 125 102 102 115 133 144 140 145 148 128 125 119 120 127 131 137 147 142 133 124
85 54 81 90 103 107 93 93 119 117 93 86 108 91 59 85 90 91 98 103 126 147 167 217 255 248 246 218 193 187 184 155 145 131 132 124 129 142 163 175 166 133 131 119 114 113 112 114 117 115 114 114 132 132
38 43 19 27 57 56 52 71 69 97 98 129 111 86 96 96 91 73 93 117 152 155 147 161 161 172 200 173 154 151 132 104 100 144 168 154 148 136 136 126 103 97 121 118 108 107 103 96 95 101 103 89 100 110
8 5 30 46 50 62 84 79 82 102 87 83 91 128 126 109 89 121 116 152 137 130 117 114 131 145 141 137 133 132 118 126 118 93 126 186 164 149 115 114 118 105 104 101 97 100 99 92 89 93 95 93 96 106
-12 -23 14 16 42 52 54 43 57 66 60 69 97 103 103 126 108 105 105 113 120 117 133 131 148 160 168 161 134 125 144 155 181 207 177 161 133 124 108 117 114 108 108 104 94 100 116 116 109 106 107 136 116 164
4 34 50 76 92 69 54 40 51 72 86 69 72 84 89 93 98 96 113 117 145 147 150 166 187 190 206 178 161 144 133 127 160 188 184 158 150 138 87 57 50 65 74 77 77 104 115 120 119 130 168 222 209 162
23 25 21 26 32 57 50 36 30 48 67 66 67 77 93 106 138 153 152 155 165 185 197 194 174 197 211 203 184 162 136 119 87 87 111 113 107 76 57 49 52 66 67 64 71 99 112 146 193 219 220 204 153 103
2 1 4 15 22 20 23 37 45 57 71 85 107 118 116 108 133 159 180 143 161 192 203 203 215 195 179 175 148 154 150 114 124 111 88 74 73 64 47 52 64 68 71 62 76 81 97 121 121 128 122 100 73 55
30 41 40 48 53 50 59 67 75 79 90 100 113 118 120 137 147 141 144 142 167 173 137 126 150 138 115 105 95 83 95 84 84 78 85 82 66 51 49 57 63 67 63 66 66 81 87 98 93 88 76 67 46 52
54 69 73 75 78 86 83 97 103 104 133 138 150 148 149 135 131 104 82 88 86 88 103 94 90 94 93 89 86 77 77 77 89 103 107 94 72 56 56 57 67 78 72 67 75 78 75 71 68 72 69 59 37 43

GFSWCAN_con_3kmhel_033.txt.gz
Helicity
176 127 146 171 128 135 133 129 110 106 120 161 160 198 206 165 100 81 96 102 72 104 180 149 171 136 141 139 134 109 178 137 146 149 122 100 116 101 138 134 101 113 134 126 201 207 143 147 284 217 118 132 144 178
199 192 185 135 260 130 127 118 99 102 108 149 160 197 214 159 89 81 131 149 130 117 134 172 158 152 123 95 121 138 101 87 102 155 139 129 147 148 162 143 161 146 134 125 138 112 118 55 138 133 160 173 182 235
136 178 247 324 141 127 105 107 105 106 112 120 144 192 205 159 104 84 126 140 124 141 170 173 208 225 220 144 92 127 137 97 111 108 116 129 156 147 147 118 154 113 150 173 194 127 112 127 133 169 204 199 238 262
147 145 197 232 115 130 93 95 104 112 118 139 166 192 185 153 127 111 126 142 105 112 115 142 178 176 225 173 117 108 102 166 154 148 144 139 149 110 136 143 146 106 150 140 167 133 161 158 170 203 240 267 318 328
156 131 130 156 108 93 88 95 96 104 117 142 166 177 171 162 145 126 124 158 106 88 67 138 151 185 212 155 177 178 194 160 147 154 143 108 118 156 166 179 153 185 200 210 184 114 151 122 141 231 311 321 339 388
126 121 109 140 97 84 79 86 92 97 109 132 151 148 135 116 123 117 124 132 168 105 87 98 115 149 185 173 209 207 168 145 142 121 113 113 149 164 142 145 115 145 138 143 128 109 145 169 161 271 290 310 343 366
133 125 112 118 116 69 67 85 99 105 114 132 147 136 112 94 78 89 68 90 149 100 97 108 109 124 123 144 148 159 170 153 143 140 147 155 170 180 189 188 177 120 98 105 132 199 197 169 168 251 343 423 493 506
182 158 133 118 100 101 108 90 88 99 115 142 133 132 136 110 71 110 162 173 140 99 112 102 104 112 130 126 134 139 138 151 178 176 171 157 182 206 175 162 108 91 100 103 135 197 156 251 348 417 474 552 611 297
240 196 164 134 108 79 77 90 104 120 132 155 139 118 135 128 113 105 188 168 135 116 112 126 114 76 123 132 132 131 146 158 157 180 183 174 199 187 140 135 131 128 104 88 174 225 303 399 491 585 630 536 197 106
292 230 192 144 136 117 108 108 118 128 175 165 155 130 126 130 146 155 136 132 157 174 185 156 146 145 129 138 149 143 145 141 145 125 150 186 229 173 171 104 78 101 93 152 292 347 442 540 616 650 461 172 109 87
351 297 206 169 154 123 111 115 119 147 192 192 154 139 139 182 151 158 151 156 156 165 164 189 188 173 170 159 145 143 133 130 121 122 154 192 207 192 192 210 220 235 328 410 468 525 596 566 355 177 120 113 68 45
266 242 240 234 204 166 139 153 160 152 145 134 98 135 153 165 161 165 205 193 187 125 173 141 146 183 186 156 148 135 164 185 172 181 214 211 226 196 247 267 287 325 374 386 332 282 209 139 95 83 58 31 56 73
121 164 262 316 319 250 196 187 187 151 134 160 155 154 146 161 178 147 170 200 180 195 172 149 147 141 151 164 199 185 163 179 189 183 219 253 213 177 168 197 212 211 187 121 103 81 37 43 38 46 65 77 91 83
129 154 176 203 197 151 116 121 158 238 250 174 151 152 147 148 159 217 253 192 173 139 125 126 135 117 133 143 123 131 179 214 223 254 251 231 223 261 271 247 212 141 38 20 10 31 51 56 54 43 29 32 41 60
119 155 178 267 225 192 150 123 90 115 157 177 186 199 205 184 182 123 121 147 158 133 121 126 130 123 131 155 165 192 215 258 273 295 282 231 255 254 224 147 166 175 141 105 56 49 44 40 42 41 56 69 71 80
54 111 211 209 192 160 150 109 101 91 103 102 117 132 95 137 130 112 119 126 116 124 139 147 158 172 182 206 214 214 249 296 244 270 241 221 223 149 117 88 67 42 28 38 38 42 46 47 44 51 68 83 84 75
36 43 123 130 107 75 90 73 103 127 110 121 115 138 120 137 128 115 108 110 94 125 160 159 181 176 192 210 267 290 273 232 183 208 125 64 48 23 25 23 31 34 43 41 42 55 61 65 82 84 79 83 97 101
41 36 51 76 51 50 61 56 48 58 81 80 99 106 119 131 118 122 104 97 102 103 114 138 133 209 216 207 192 122 60 35 28 20 5 -3 16 36 37 38 53 65 64 60 59 66 81 93 91 99 100 104 108 120
28 46 75 78 37 18 27 40 43 48 55 65 80 93 93 97 95 78 71 74 68 65 88 101 122 107 102 94 81 70 43 33 44 53 69 78 76 79 95 105 108 108 106 114 124 122 112 107 97 106 117 122 125 132
60 82 110 84 53 43 47 47 55 47 58 49 81 95 96 99 90 84 77 78 75 79 99 98 83 89 80 68 60 64 67 71 93 104 106 122 137 143 158 147 138 131 126 133 113 94 93 92 111 126 125 128 121 128
64 72 81 65 64 90 66 67 82 67 65 92 94 107 111 112 117 103 85 72 113 117 119 88 89 93 103 109 103 108 126 107 104 97 117 159 165 162 156 143 122 110 93 89 96 106 127 118 115 111 115 119 124 130
23 38 37 49 60 80 94 110 103 109 124 100 119 120 146 161 163 140 117 137 138 125 122 119 115 124 162 160 159 172 142 178 191 201 211 173 159 150 137 125 113 118 123 125 117 115 110 113 117 120 117 121 123 134
26 37 44 56 84 109 95 110 145 152 156 140 145 162 148 145 123 112 139 104 123 134 122 140 156 201 211 204 240 282 246 201 208 199 180 159 158 152 143 141 120 110 116 133 134 129 124 118 117 119 119 121 136 144
39 67 78 108 110 129 97 133 124 144 174 165 142 146 121 98 83 100 120 118 115 110 129 147 145 187 214 246 253 244 230 183 160 175 155 125 138 154 144 147 138 152 157 138 128 119 110 110 110 114 114 113 110 116
77 86 97 102 78 105 127 138 134 158 148 134 148 116 63 57 90 74 71 82 121 148 158 174 226 210 192 189 186 193 197 167 143 143 161 152 144 160 177 172 158 159 133 121 117 102 95 96 94 89 90 89 94 89
39 19 38 15 11 48 52 87 77 74 78 99 80 74 65 78 75 72 86 106 134 145 139 135 136 170 196 185 161 152 147 130 116 137 142 143 135 116 131 139 132 113 105 89 84 91 92 83 77 77 76 85 103 103
11 7 18 32 37 33 40 35 32 32 34 60 63 86 84 70 69 105 107 131 117 138 134 116 130 138 132 134 131 129 122 121 106 131 127 135 132 108 70 80 73 58 72 82 81 71 70 74 72 76 84 114 128 120
25 53 39 15 31 46 49 53 39 28 28 49 55 58 53 81 82 104 116 103 107 113 118 119 134 134 142 134 126 135 156 131 152 152 137 124 104 81 74 69 82 76 79 72 66 71 86 74 73 80 103 138 144 165
27 -16 -39 -15 -17 47 40 29 23 44 42 42 46 56 73 83 70 72 92 95 107 104 112 120 146 140 159 168 175 159 168 196 203 192 168 137 130 109 109 87 66 65 66 64 58 63 61 64 77 97 113 145 134 116
-12 12 27 21 16 17 19 20 29 17 23 42 44 46 60 76 102 106 95 109 121 140 148 159 155 162 153 158 167 181 161 133 99 111 114 99 93 87 70 56 57 58 47 49 59 73 71 94 84 90 103 104 108 100
-4 18 16 15 21 10 -9 12 32 51 51 57 65 82 89 89 111 143 135 119 129 139 152 169 187 166 167 170 161 153 130 89 90 69 59 61 53 55 59 63 59 51 50 63 61 60 62 62 70 68 71 73 77 80
27 37 36 34 39 44 66 57 63 74 85 92 97 100 119 139 146 137 121 131 152 163 119 107 141 132 89 89 83 66 59 52 50 50 45 55 65 68 61 50 50 62 69 59 60 67 73 83 75 73 68 70 73 70
58 69 76 74 75 80 81 86 100 92 112 115 128 122 130 130 129 109 106 110 90 76 93 87 76 61 50 52 56 44 42 43 39 58 81 87 75 64 56 53 65 74 71 67 69 78 84 86 79 70 62 64 63 55

GFSWCAN_con_3kmhel_039.txt.gz
Helicity
107 121 106 112 100 94 88 92 75 73 73 74 73 71 82 53 132 204 174 139 89 95 175 171 171 134 192 204 170 148 219 149 147 136 105 83 87 74 83 83 64 76 89 87 127 132 73 66 104 105 72 77 98 80
114 148 141 120 119 122 96 69 66 64 70 68 50 72 82 42 103 144 102 118 120 133 143 181 145 134 132 140 160 182 105 111 101 155 118 102 116 113 109 81 105 89 91 101 100 98 85 31 52 91 112 114 138 131
184 159 138 117 108 107 88 92 89 91 96 58 54 78 93 98 95 95 90 111 131 179 225 198 218 196 167 147 136 138 146 100 128 124 101 120 126 116 121 89 114 75 124 138 128 78 62 44 53 89 141 156 127 121
131 125 120 109 104 122 135 136 111 106 98 82 98 98 104 132 125 122 123 81 81 119 125 211 217 192 248 160 124 116 121 175 157 145 141 133 144 96 121 124 109 102 117 113 104 67 93 83 80 91 105 113 136 165
139 127 101 105 135 154 150 138 160 161 137 163 160 145 143 145 172 220 131 35 72 78 94 177 205 242 269 190 179 185 190 169 148 155 147 132 125 142 159 146 99 118 112 127 109 90 94 80 79 88 97 113 137 205
163 135 147 129 145 177 187 169 167 132 173 194 178 160 171 168 306 144 80 76 129 98 84 146 150 190 241 248 281 258 204 164 147 132 130 140 152 159 162 120 120 134 111 99 99 93 83 82 94 103 117 159 222 294
135 150 138 125 173 205 167 247 198 136 147 184 183 140 123 114 133 58 46 134 170 130 105 123 132 164 180 170 165 183 182 151 145 143 165 164 157 160 168 139 159 151 139 125 115 93 112 163 130 180 250 333 448 526
166 176 183 224 129 124 140 149 185 184 86 120 124 109 108 101 103 212 281 259 159 107 127 102 119 119 167 135 134 153 137 143 169 149 146 159 156 165 134 170 165 156 135 157 123 130 142 193 253 270 301 415 544 547
238 255 201 239 112 116 140 157 187 172 174 158 118 129 163 169 152 162 236 202 165 113 110 106 84 72 103 106 116 122 133 140 124 157 166 135 162 188 176 140 149 142 93 88 182 205 222 263 262 301 380 410 359 286
159 209 167 169 137 129 139 170 172 156 121 102 136 149 152 165 197 183 151 134 142 140 120 88 84 92 97 110 130 123 134 137 143 149 146 198 243 192 159 128 96 127 139 142 177 157 202 227 223 238 230 184 158 160
235 206 212 221 199 155 179 194 197 152 130 162 193 201 134 146 120 123 122 120 134 110 99 92 108 107 127 111 127 139 137 142 140 153 163 183 193 179 152 151 143 155 162 170 184 164 164 136 125 120 116 112 63 -9
212 155 113 131 188 157 143 162 156 174 198 177 139 151 177 168 132 133 145 125 114 91 112 103 127 144 152 132 138 138 162 146 160 172 189 164 174 183 186 156 122 80 67 72 75 51 55 77 76 64 34 -7 -24 -8
255 215 175 175 164 139 148 189 153 69 86 107 97 111 141 158 141 122 104 132 128 121 111 105 138 140 140 149 159 136 141 182 164 158 184 229 215 202 195 158 142 127 109 98 94 80 67 47 30 28 36 37 34 38
282 276 255 234 187 159 151 143 145 140 120 88 91 129 118 119 121 121 118 118 120 114 123 135 140 124 127 136 129 141 158 156 167 177 186 188 178 195 192 149 154 151 144 120 99 89 89 78 62 46 35 32 35 51
268 309 284 420 264 227 210 205 207 112 125 119 133 136 136 117 143 122 116 118 114 93 117 139 143 138 141 149 154 160 168 164 160 150 148 135 139 142 137 163 165 146 120 113 100 92 80 65 56 52 69 72 79 77
177 273 359 368 283 239 147 175 207 126 117 111 122 113 118 158 166 175 165 145 135 147 152 141 134 127 136 133 156 167 197 184 141 118 105 114 122 111 79 126 127 127 118 109 111 78 57 57 63 67 73 87 75 64
120 117 234 139 83 88 102 92 104 152 149 152 160 173 155 177 145 130 118 109 83 103 137 110 153 145 142 167 181 157 161 109 65 65 55 31 31 47 94 110 108 105 137 136 107 99 99 86 80 90 96 78 64 62
107 161 180 134 55 80 104 91 102 134 143 135 129 124 98 121 115 117 91 96 101 111 130 151 128 174 169 162 139 109 104 107 91 76 85 83 84 76 105 136 142 138 140 132 115 114 112 104 105 82 72 62 56 75
47 66 89 92 38 40 67 93 81 82 99 100 106 118 128 132 141 119 114 112 110 105 115 122 135 113 103 89 82 68 65 70 83 107 115 116 121 155 182 189 183 174 160 154 151 133 113 114 85 65 59 58 57 66
31 78 124 75 9 20 49 54 36 53 75 66 72 87 87 88 81 87 89 86 92 92 107 106 94 87 77 75 68 70 75 91 144 149 152 174 188 219 221 194 177 165 157 147 142 136 105 86 79 79 77 76 83 89
48 91 98 34 45 38 27 38 42 33 34 48 50 58 61 63 68 73 81 77 103 103 105 89 83 88 106 130 135 127 149 111 122 116 140 171 191 209 208 192 175 164 151 131 112 95 80 76 77 81 88 96 104 100
34 49 17 51 32 37 40 62 40 33 48 47 59 62 76 88 92 91 86 102 108 101 95 95 102 108 142 168 178 183 161 178 196 229 270 232 198 199 202 177 149 133 117 98 79 78 75 83 99 107 106 102 102 114
8 23 34 57 49 71 51 61 61 71 59 48 51 66 74 85 98 96 133 120 114 105 108 120 152 173 195 198 201 222 208 195 208 197 193 200 188 167 151 142 120 101 88 95 90 96 101 100 109 111 111 122 114 102
-18 14 43 61 90 85 73 105 80 90 91 84 87 98 105 110 97 137 145 137 114 109 123 124 138 181 209 232 232 211 201 159 165 185 169 152 151 142 115 100 99 111 113 103 110 112 116 117 115 120 123 108 89 81
20 50 68 79 74 85 104 94 95 116 123 108 116 106 81 90 124 141 149 122 120 122 128 137 146 155 153 160 163 169 182 142 142 158 168 140 118 110 125 128 121 131 124 128 138 136 129 113 123 110 102 96 83 63
26 32 39 34 43 62 51 63 21 17 38 66 46 43 50 80 113 130 103 96 89 119 151 147 128 145 161 140 128 138 134 119 110 122 124 137 142 129 137 146 143 131 128 105 93 103 106 103 103 100 98 87 69 60
-18 -11 -17 -13 -12 -6 -4 -6 -5 -5 -4 -12 8 24 15 39 54 54 55 84 94 112 103 105 98 102 99 104 104 102 101 115 130 133 130 144 149 145 135 135 127 95 84 95 96 97 95 93 89 83 68 62 64 76
9 7 8 -4 13 15 21 22 22 24 29 33 37 58 37 31 36 43 54 44 48 49 57 81 97 92 95 96 89 98 132 141 157 149 143 139 126 117 102 84 80 83 86 87 83 88 86 80 70 60 60 64 71 82
15 6 27 22 14 21 26 33 38 44 38 25 39 40 40 45 40 41 46 45 51 50 56 67 84 84 105 122 145 149 125 110 125 147 141 117 112 97 97 96 90 87 87 93 93 84 69 74 80 78 77 77 78 83
17 13 25 16 10 -3 -11 3 5 11 25 37 46 54 61 69 88 83 84 92 89 85 79 84 83 83 93 96 102 127 133 124 115 118 108 100 88 78 74 82 84 84 86 89 90 87 85 92 87 100 101 101 102 101
-4 7 15 15 16 9 -2 15 39 55 57 60 64 78 87 88 107 134 131 108 97 92 98 113 125 116 132 134 125 119 117 94 80 59 48 61 65 70 72 69 72 78 80 79 80 81 78 82 90 91 94 95 95 96
12 16 14 24 27 33 60 69 67 81 91 91 94 89 94 108 110 88 103 93 105 124 115 112 117 104 70 70 70 62 60 65 70 70 62 67 66 64 65 68 75 77 75 75 76 77 78 81 82 85 84 84 85 86
39 43 51 49 59 69 81 88 108 95 118 112 110 93 80 71 71 65 73 86 90 98 101 90 71 64 54 51 53 57 53 55 49 46 46 43 41 51 63 69 71 71 70 74 78 80 80 79 79 77 75 75 73 75